[[{"header":{"parameterUnit":"m.s-1","parameterCategory":1,"la1":30.2991,"la2":30.254,"lo1":-89.0895,"lo2":-89.0444,"dy":0.0017,"dx":0.0017,"nx":28,"ny":28,"refTime":"2025-12-23T03:00:00:Z","depth":0,"parameterNumber":2,"parameterNumberName":"U-component_of_WINDS"},"data":[0,0,0,0,0,0,0,0,0,0,0,0,0,0,0,0,0,0,0,0,0,0,0,0,0,0,0,0,0,0,0,0,0,0,0,0,0,0,0,0,0,0,0,0,0,0,0,0,0,0,0,0,0,0,0,0,0,0,-1.4756,-1.4755,0,-1.4696,-1.4695,-1.4695,-1.4603,-1.4601,-1.46,-1.4598,-1.454,-1.454,-1.454,0,0,0,0,0,0,0,0,0,0,0,0,0,-1.4793,-1.4793,-1.4756,-1.4755,-1.4754,-1.4696,-1.4695,-1.4694,-1.4603,-1.4601,-1.4599,-1.4598,-1.454,-1.454,-1.454,0,0,0,0,0,0,0,0,0,0,0,0,0,-1.476,-1.4793,-1.4756,-1.4702,-1.4696,-1.4696,-1.4695,-1.4694,-1.4604,-1.4601,-1.4599,-1.4597,-1.454,-1.454,-1.454,-1.4588,0,0,-1.4539,-1.4539,0,0,0,0,0,0,0,0,-1.4762,-1.4758,-1.471,-1.4705,-1.4699,-1.4654,-1.4687,-1.4659,-1.4604,-1.4639,-1.4598,-1.4595,-1.458,-1.4576,-1.4571,-1.4586,-1.4583,-1.4539,-1.4539,-1.4539,-1.4539,0,0,0,0,0,0,0,-1.4764,-1.476,-1.4732,-1.471,-1.4703,-1.4681,-1.4674,-1.4681,-1.4624,-1.4636,-1.4629,-1.4623,-1.4577,-1.4571,-1.4569,-1.4582,-1.4539,-1.4539,-1.4539,-1.4539,-1.4634,-1.4637,0,0,0,0,0,0,-1.4774,-1.4763,-1.4734,-1.473,-1.4725,-1.4682,-1.4674,-1.4671,-1.4624,-1.4614,-1.4625,-1.4619,-1.4572,-1.4569,-1.4566,-1.4621,-1.4539,-1.4539,-1.4539,-1.4632,-1.4635,-1.4638,0,0,0,0,0,0,-1.4775,-1.4772,-1.4736,-1.4745,-1.4738,-1.4684,-1.4682,-1.4672,-1.4666,-1.4616,-1.4605,-1.463,-1.457,-1.4566,-1.4583,-1.4617,-1.4539,-1.4539,-1.4629,-1.4633,-1.4636,-1.473,0,0,0,0,0,0,-1.4777,-1.4773,-1.4791,-1.4746,-1.4738,-1.4754,-1.4684,-1.4672,-1.4666,-1.4657,-1.4617,-1.4609,-1.4568,-1.4584,-1.4583,-1.4616,-1.4539,-1.4625,-1.463,-1.4635,-1.4723,-1.4736,-1.4747,0,0,0,0,0,-1.4778,-1.482,-1.4792,-1.4789,-1.4759,-1.4756,-1.4752,-1.4704,-1.4669,-1.4686,-1.4654,-1.461,-1.4613,-1.4586,-1.4585,-1.4618,-1.4623,-1.4629,-1.4635,-1.4718,-1.4734,-1.4747,0,0,0,0,0,0,-1.4872,-1.4813,-1.4782,-1.481,-1.4789,-1.4741,-1.4762,-1.4722,-1.4711,-1.4704,-1.4645,-1.4637,-1.4662,-1.4641,-1.4612,-1.4663,-1.4611,-1.4617,-1.4675,-1.469,-1.4702,-1.4707,-1.4539,0,0,0,0,0,-1.4895,-1.4897,-1.4846,-1.4876,-1.4867,-1.4817,-1.4814,-1.4778,-1.4754,-1.4745,-1.4714,-1.4693,-1.4689,-1.4688,-1.4682,-1.4719,-1.471,-1.4741,-1.4753,-1.4763,-1.477,-1.4788,-1.4802,-1.4656,-1.4656,-1.4656,0,0,-1.4945,-1.4913,-1.4918,-1.4894,-1.4874,-1.4878,-1.481,-1.4817,-1.482,-1.4746,-1.476,-1.4737,-1.471,-1.4737,-1.4748,-1.4721,-1.4807,-1.4771,-1.4779,-1.478,-1.4796,-1.4809,-1.4822,-1.466,-1.466,-1.4659,0,0,-1.5037,-1.5013,-1.5035,-1.5016,-1.4985,-1.4951,-1.4956,-1.4914,-1.4896,-1.4909,-1.4854,-1.4856,-1.4851,-1.4834,-1.4825,-1.491,-1.4869,-1.491,-1.4973,-1.4992,-1.5003,-1.5013,-1.5044,-1.5056,-1.4915,-1.4916,-1.4916,0,-1.5103,-1.5106,-1.5052,-1.5063,-1.5054,-1.4987,-1.5009,-1.4993,-1.4963,-1.4959,-1.4929,-1.492,-1.4897,-1.492,-1.4941,-1.4935,-1.4941,-1.4914,-1.5006,-1.5015,-1.5023,-1.5053,-1.5064,-1.4921,-1.492,-1.492,-1.4919,0,-1.5188,-1.5192,-1.5213,-1.5185,-1.5178,-1.5195,-1.5145,-1.5145,-1.511,-1.5079,-1.5093,-1.5063,-1.505,-1.5052,-1.5018,-1.5071,-1.5055,-1.5016,-1.4964,-1.5043,-1.507,-1.5081,-1.4928,-1.4926,-1.4925,-1.4924,0,0,-1.5339,-1.528,-1.5289,-1.5275,-1.5236,-1.5237,-1.5251,-1.5237,-1.5239,-1.522,-1.523,-1.5227,-1.5191,-1.518,-1.5144,-1.516,-1.5231,-1.5119,-1.5118,-1.5142,-1.5287,-1.5318,-1.5331,-1.5203,-1.5205,-1.5206,-1.529,0,-1.5424,-1.5444,-1.5396,-1.5428,-1.543,-1.5366,-1.5378,-1.5356,-1.5327,-1.5326,-1.5294,-1.5293,-1.5245,-1.5238,-1.5251,-1.522,-1.5259,-1.5213,-1.5213,-1.5214,-1.5223,-1.5345,-1.5377,-1.5457,-1.53,-1.5301,-1.5303,0,-1.5527,-1.5512,-1.5544,-1.5503,-1.5502,-1.5514,-1.5497,-1.5496,-1.547,-1.5448,-1.5436,-1.5393,-1.5404,-1.5353,-1.5368,-1.5337,-1.5334,-1.5319,-1.5321,-1.532,-1.5264,-1.5349,-1.5482,-1.5494,-1.5318,-1.5317,-1.5316,0,-1.5635,-1.5623,-1.564,-1.5631,-1.5583,-1.5592,-1.5573,-1.5544,-1.5539,-1.5524,-1.552,-1.5508,-1.5501,-1.5493,-1.5448,-1.5414,-1.5469,-1.5413,-1.5452,-1.5453,-1.5467,-1.5467,-1.5603,-1.5464,-1.5464,-1.5463,-1.5463,0,-1.5736,-1.5758,-1.5688,-1.57,-1.5723,-1.5667,-1.5692,-1.5666,-1.5641,-1.5646,-1.5589,-1.5596,-1.5535,-1.5535,-1.55,-1.5519,-1.5516,-1.5499,-1.549,-1.5505,-1.5507,-1.5503,-1.5497,-1.5467,-1.5466,-1.5465,-1.5465,0,-1.5861,-1.5815,-1.583,-1.5783,-1.5772,-1.5791,-1.5751,-1.576,-1.5727,-1.5735,-1.5733,-1.5683,-1.568,-1.5634,-1.5621,-1.5597,-1.563,-1.561,-1.5639,-1.5633,-1.5674,-1.5672,-1.5813,-1.5829,-1.568,-1.5681,-1.5682,0,-1.5929,-1.5944,-1.5899,-1.5898,-1.5881,-1.588,-1.5874,-1.582,-1.5816,-1.5787,-1.58,-1.5792,-1.5783,-1.5781,-1.5744,-1.5734,-1.5713,-1.5764,-1.5712,-1.5727,-1.5715,-1.5716,-1.5717,-1.5775,-1.5777,-1.5779,-1.578,0,-1.6055,-1.6031,-1.6024,-1.6009,-1.6004,-1.599,-1.5972,-1.5975,-1.5915,-1.5914,-1.591,-1.5903,-1.5889,-1.5883,-1.5866,-1.5846,-1.5804,-1.5796,-1.5805,-1.5821,-1.5838,-1.583,-1.5671,-1.5794,-1.5792,-1.5791,-1.5791,-1.579,-1.6154,-1.6165,-1.6134,-1.6129,-1.6109,-1.6094,-1.61,-1.6068,-1.6063,-1.6048,-1.6016,-1.6017,-1.599,-1.5963,-1.5947,-1.5947,-1.5922,-1.5934,-1.5937,-1.5941,-1.595,-1.5837,-1.5944,-1.5944,-1.5943,-1.5943,-1.5942,0,-1.6277,-1.6254,-1.625,-1.6227,-1.6222,-1.6181,-1.6159,-1.6159,-1.616,-1.6138,-1.613,-1.6126,-1.6119,-1.6081,-1.607,-1.6077,-1.6058,-1.6077,-1.6076,-1.6072,-1.5973,-1.5967,-1.6093,-1.6093,-1.6093,-1.6093,-1.6093,-1.6093,-1.6341,-1.6358,-1.6331,-1.6337,-1.6314,-1.6314,-1.6305,-1.6291,-1.6273,-1.627,-1.6264,-1.6239,-1.621,-1.6197,-1.6189,-1.6178,-1.6177,-1.6203,-1.6186,-1.6094,-1.6079,-1.6066,-1.606,-1.6203,-1.6203,-1.6285,-1.6286,-1.6286]},{"header":{"parameterUnit":"m.s-1","parameterCategory":1,"la1":30.2991,"la2":30.254,"lo1":-89.0895,"lo2":-89.0444,"dy":0.0017,"dx":0.0017,"nx":28,"ny":28,"refTime":"2025-12-23T03:00:00:Z","depth":0,"parameterNumber":3,"parameterNumberName":"V-component_of_WINDS"},"data":[0,0,0,0,0,0,0,0,0,0,0,0,0,0,0,0,0,0,0,0,0,0,0,0,0,0,0,0,0,0,0,0,0,0,0,0,0,0,0,0,0,0,0,0,0,0,0,0,0,0,0,0,0,0,0,0,0,0,0.1479,0.1478,0,0.1455,0.1455,0.1454,0.137,0.1369,0.1367,0.1365,0.1341,0.1342,0.1343,0,0,0,0,0,0,0,0,0,0,0,0,0,0.1454,0.1455,0.1479,0.1478,0.1478,0.1455,0.1455,0.1454,0.1371,0.1368,0.1366,0.1364,0.1341,0.1342,0.1343,0,0,0,0,0,0,0,0,0,0,0,0,0,0.1451,0.1455,0.1479,0.1434,0.1429,0.1455,0.1455,0.1454,0.1371,0.1368,0.1366,0.1363,0.134,0.1342,0.1344,0.1411,0,0,0.1349,0.135,0,0,0,0,0,0,0,0,0.1451,0.1452,0.1441,0.1437,0.1432,0.1413,0.1437,0.144,0.1372,0.1393,0.1365,0.1362,0.1367,0.1367,0.1368,0.141,0.1409,0.1349,0.135,0.1351,0.1351,0,0,0,0,0,0,0,0.1451,0.1452,0.1469,0.144,0.1435,0.1415,0.1412,0.1437,0.1397,0.1391,0.1385,0.1383,0.1364,0.1367,0.1367,0.1409,0.1349,0.1351,0.1352,0.1352,0.1508,0.1511,0,0,0,0,0,0,0.1458,0.1453,0.147,0.1468,0.1435,0.1418,0.1414,0.1422,0.1396,0.1389,0.1386,0.138,0.1365,0.1365,0.1366,0.1446,0.1351,0.1352,0.1353,0.1505,0.1509,0.1512,0,0,0,0,0,0,0.1458,0.146,0.1471,0.1459,0.1459,0.1421,0.1431,0.1423,0.1425,0.1392,0.1384,0.1396,0.1363,0.1364,0.1401,0.1444,0.1353,0.1355,0.1501,0.1506,0.151,0.1606,0,0,0,0,0,0,0.1457,0.146,0.1485,0.146,0.146,0.1506,0.1433,0.1424,0.1428,0.142,0.1399,0.1393,0.1361,0.1399,0.1403,0.1445,0.1356,0.1497,0.1503,0.1509,0.1599,0.1614,0.1626,0,0,0,0,0,0.1457,0.1512,0.1487,0.1489,0.149,0.1509,0.1509,0.147,0.1432,0.1457,0.1436,0.1394,0.1438,0.1404,0.1407,0.1451,0.1495,0.1502,0.1509,0.1593,0.1611,0.1626,0,0,0,0,0,0,0.1543,0.1508,0.148,0.1529,0.1523,0.1495,0.1525,0.149,0.1494,0.1486,0.1438,0.1434,0.148,0.1468,0.143,0.1516,0.146,0.1468,0.1523,0.1539,0.1552,0.1556,0.1357,0,0,0,0,0,0.1568,0.1586,0.1554,0.1601,0.1599,0.1563,0.157,0.1541,0.1532,0.1529,0.1511,0.1505,0.1518,0.1527,0.1537,0.1596,0.1592,0.1628,0.1641,0.1652,0.1661,0.1695,0.1711,0.1535,0.1535,0.1535,0,0,0.1619,0.1602,0.1616,0.1618,0.161,0.1631,0.1561,0.1585,0.1601,0.1533,0.1569,0.1555,0.1545,0.1595,0.1616,0.1587,0.1708,0.1661,0.167,0.1673,0.1704,0.1721,0.1735,0.154,0.1539,0.1538,0,0,0.1724,0.1712,0.1751,0.1745,0.1734,0.1709,0.1719,0.1697,0.1686,0.172,0.1671,0.1688,0.171,0.1707,0.1708,0.1814,0.1776,0.1818,0.1889,0.1923,0.1937,0.1949,0.1991,0.2006,0.1826,0.1826,0.1826,0,0.179,0.1819,0.1776,0.1805,0.1808,0.1747,0.1788,0.1784,0.1776,0.1781,0.1747,0.1776,0.1765,0.1815,0.1841,0.1842,0.1854,0.1821,0.1938,0.195,0.1961,0.2,0.2015,0.1831,0.1831,0.183,0.183,0,0.1902,0.1923,0.1956,0.1952,0.1959,0.1993,0.1956,0.1968,0.1939,0.1919,0.1957,0.1941,0.1948,0.1957,0.1928,0.2004,0.1987,0.1947,0.1889,0.1984,0.202,0.2034,0.1839,0.1837,0.1836,0.1834,0,0,0.2062,0.2034,0.2048,0.2047,0.203,0.2046,0.2078,0.2086,0.2099,0.2095,0.2123,0.2144,0.2108,0.2109,0.2079,0.2109,0.2198,0.2065,0.2064,0.2094,0.2285,0.2318,0.2336,0.2172,0.2175,0.2177,0.2287,0,0.2165,0.2219,0.2182,0.2243,0.2264,0.2208,0.2236,0.223,0.2212,0.2228,0.2208,0.2225,0.2174,0.2175,0.2201,0.2182,0.2237,0.2173,0.22,0.2202,0.2208,0.2354,0.2388,0.2494,0.2301,0.2303,0.2305,0,0.2292,0.2297,0.2361,0.2343,0.235,0.2377,0.2382,0.2397,0.239,0.2375,0.2377,0.2341,0.2373,0.2314,0.2359,0.2317,0.2326,0.2318,0.2321,0.2325,0.2261,0.2366,0.2526,0.2543,0.2326,0.2324,0.2322,0,0.2408,0.2429,0.2471,0.2471,0.245,0.2471,0.2463,0.2453,0.2461,0.2465,0.247,0.2478,0.2483,0.2491,0.2458,0.2418,0.2509,0.2447,0.25,0.2501,0.2524,0.2524,0.2692,0.2524,0.2523,0.2523,0.2523,0,0.2529,0.2571,0.2523,0.2549,0.2595,0.2552,0.2599,0.2585,0.2577,0.2601,0.2551,0.2574,0.2527,0.2546,0.252,0.2564,0.2565,0.2556,0.2549,0.2563,0.2565,0.257,0.2564,0.2527,0.2526,0.2525,0.2525,0,0.2666,0.2635,0.2678,0.2655,0.2651,0.2686,0.2668,0.2692,0.267,0.2701,0.2706,0.2673,0.2693,0.266,0.2675,0.2658,0.272,0.27,0.2723,0.2719,0.2775,0.2772,0.2956,0.298,0.2793,0.2795,0.2796,0,0.2747,0.2779,0.276,0.2773,0.2769,0.2789,0.2797,0.2756,0.2767,0.2762,0.2788,0.2803,0.2814,0.2849,0.2827,0.284,0.2822,0.2885,0.2823,0.2837,0.2828,0.2828,0.2833,0.2899,0.2902,0.2903,0.2905,0,0.2896,0.2879,0.2893,0.2903,0.2915,0.292,0.2921,0.2934,0.2891,0.2906,0.2927,0.2935,0.2952,0.297,0.2977,0.2969,0.2932,0.2924,0.2938,0.2954,0.2968,0.2965,0.2762,0.2921,0.2919,0.2918,0.2917,0.2917,0.301,0.3037,0.3029,0.3047,0.3044,0.3048,0.307,0.3053,0.3069,0.308,0.3055,0.3082,0.3076,0.3082,0.3079,0.3101,0.3073,0.3092,0.3097,0.3104,0.3115,0.2961,0.3101,0.3101,0.31,0.31,0.3099,0,0.3159,0.3152,0.3169,0.3174,0.3189,0.3151,0.3151,0.3167,0.3192,0.3189,0.3201,0.3226,0.3243,0.3223,0.3237,0.3259,0.3242,0.3264,0.3264,0.3264,0.3136,0.3125,0.3278,0.3278,0.3278,0.3278,0.3278,0.3278,0.3239,0.3284,0.3267,0.3311,0.3303,0.333,0.3334,0.3338,0.3336,0.3366,0.3381,0.3367,0.3359,0.3372,0.3387,0.338,0.339,0.3419,0.3407,0.3289,0.3272,0.3256,0.3245,0.342,0.3421,0.3533,0.3534,0.3535]}]]